Saint David, ME

2:38 AM EST on January 17, 2017 (GMT -0500)
Northern Aroostook Regional

Weather History for KFVE - August, 2014

Change the Weather History Date:

Friday, August 15, 2014

  Actual Average Record
Temperature  
Mean Temperature 58 °F 63 °F  
Max Temperature 67 °F 72 °F 91 °F (2002)
Min Temperature 48 °F 53 °F 44 °F (1996)
Degree Days  
Heating Degree Days 7    
Month to date heating degree days 26  
Since 1 July heating degree days 76  
Cooling Degree Days 0    
Month to date cooling degree days 13  
Year to date cooling degree days 113  
Growing Degree Days 7 (Base 50)    
Moisture  
Dew Point 50 °F    
Average Humidity 87    
Maximum Humidity 100    
Minimum Humidity 54    
Precipitation  
Precipitation 0.00 in 0.12 in 0.28 in (1998)
Month to date precipitation 1.47 1.87  
Year to date precipitation 22.30 19.93  
Sea Level Pressure  
Sea Level Pressure 29.84 in    
Wind  
Wind Speed 5 mph (NW)    
Max Wind Speed 14 mph    
Max Gust Speed 18 mph    
Visibility 6 miles    
Events Fog    
T = Trace of Precipitation, MM = Missing Value Source: NWS Daily Summary

Daily Weather History Graph

Daily Weather History Graph

Search for Another Location

Airport or City:

Trip Planner

Search our weather history database for the weather conditions in past years. The results will help you decide how hot, cold, wet, or windy it might be!

Date:

Astronomy

Aug. 15, 2014 Rise Set
Actual Time 5:29 AM EDT 7:44 PM EDT
Civil Twilight 4:56 AM EDT 8:18 PM EDT
Nautical Twilight 4:14 AM EDT 8:59 PM EDT
Astronomical Twilight 3:26 AM EDT 9:46 PM EDT
Moon 10:17 PM EDT (8/15) 11:34 AM EDT (8/15)
Length of Visible Light 15h 22m
Length of Day
14h 15m
Waning Gibbous, 69% of the Moon is Illuminated
Aug 15
Waning Gibbous
Aug 17
Last Quarter
Aug 25
New
Sep 2
First Quarter
Sep 8
Full

Hourly Weather History & Observations

Time (EDT) Temp. Dew Point Humidity Pressure Visibility Wind Dir Wind Speed Gust Speed Precip Events Conditions
12:53 AM 54.0 °F 52.0 °F 93% 29.86 in 10.0 mi North 4.6 mph - N/A   Mostly Cloudy
1:53 AM 53.1 °F 52.0 °F 96% 29.85 in 10.0 mi WNW 6.9 mph - N/A   Scattered Clouds
2:13 AM 52.0 °F 52.0 °F 100% 29.86 in 2.5 mi NW 4.6 mph - N/A   Partly Cloudy
2:17 AM 52.0 °F 52.0 °F 100% 29.86 in 1.5 mi WNW 5.8 mph - N/A   Scattered Clouds
2:24 AM 52.0 °F 52.0 °F 100% 29.86 in 2.0 mi WNW 4.6 mph - N/A   Scattered Clouds
2:37 AM 52.0 °F 51.1 °F 97% 29.85 in 6.0 mi WNW 5.8 mph - N/A   Partly Cloudy
2:53 AM 51.1 °F 51.1 °F 100% 29.85 in 10.0 mi NW 4.6 mph - N/A   Clear
3:34 AM 51.1 °F 50.0 °F 96% 29.84 in 1.2 mi North 4.6 mph - N/A   Scattered Clouds
3:41 AM 50.0 °F 48.9 °F 96% 29.84 in 0.2 mi NNW 5.8 mph - N/A Fog Fog
3:48 AM 50.0 °F 48.2 °F 94% 29.84 in 0.2 mi NNW 6.9 mph - N/A Fog Fog
3:53 AM 50.0 °F 50.0 °F 100% 29.84 in 1.0 mi NNW 5.8 mph - N/A   Mist
3:55 AM 50.0 °F 50.0 °F 100% 29.84 in 1.8 mi NNW 5.8 mph - N/A   Scattered Clouds
3:57 AM 50.0 °F 50.0 °F 100% 29.84 in 4.0 mi NNW 5.8 mph - N/A   Scattered Clouds
4:10 AM 50.0 °F 50.0 °F 100% 29.84 in 1.5 mi NNW 4.6 mph - N/A   Mostly Cloudy
4:17 AM 50.0 °F 48.9 °F 96% 29.83 in 1.2 mi NNW 4.6 mph - N/A   Mostly Cloudy
4:19 AM 50.0 °F 48.9 °F 96% 29.83 in 2.0 mi NNW 5.8 mph - N/A   Mostly Cloudy
4:27 AM 50.0 °F 48.0 °F 93% 29.83 in 10.0 mi NW 6.9 mph - N/A   Mostly Cloudy
4:53 AM 48.9 °F 48.0 °F 97% 29.83 in 10.0 mi NNW 6.9 mph - N/A   Overcast
5:08 AM 50.0 °F 48.9 °F 96% 29.83 in 1.5 mi North 5.8 mph - N/A   Overcast
5:13 AM 50.0 °F 48.9 °F 96% 29.84 in 0.8 mi NNW 4.6 mph - N/A   Overcast
5:18 AM 50.0 °F 48.9 °F 96% 29.84 in 1.8 mi NNW 4.6 mph - N/A   Overcast
5:25 AM 50.0 °F 48.9 °F 96% 29.84 in 10.0 mi North 4.6 mph - N/A   Overcast
5:35 AM 48.9 °F 48.0 °F 97% 29.83 in 2.0 mi NNW 5.8 mph - N/A   Mostly Cloudy
5:37 AM 48.9 °F 48.0 °F 97% 29.84 in 0.8 mi NNW 5.8 mph - N/A   Mostly Cloudy
5:50 AM 50.0 °F 48.2 °F 94% 29.84 in 0.2 mi NNW 5.8 mph - N/A Fog Fog
5:53 AM 50.0 °F 48.9 °F 96% 29.84 in 0.2 mi NW 5.8 mph - N/A Fog Fog
5:57 AM 48.9 °F 48.9 °F 100% 29.84 in 1.8 mi NW 5.8 mph - N/A   Mostly Cloudy
5:59 AM 48.9 °F 48.9 °F 100% 29.84 in 3.0 mi NW 5.8 mph - N/A   Mostly Cloudy
6:03 AM 48.9 °F 48.9 °F 100% 29.84 in 1.8 mi NW 6.9 mph - N/A   Mostly Cloudy
6:06 AM 48.2 °F 48.2 °F 100% 29.84 in 1.5 mi NW 6.9 mph - N/A   Scattered Clouds
6:13 AM 48.9 °F 48.9 °F 100% 29.84 in 0.8 mi NNW 3.5 mph - N/A   Mist
6:36 AM 48.9 °F 48.0 °F 97% 29.84 in 1.5 mi NW 5.8 mph - N/A   Mostly Cloudy
6:38 AM 48.9 °F 48.0 °F 97% 29.84 in 4.0 mi NW 5.8 mph - N/A   Mostly Cloudy
6:46 AM 50.0 °F 48.9 °F 96% 29.84 in 10.0 mi NNW 6.9 mph - N/A   Scattered Clouds
6:53 AM 50.0 °F 48.9 °F 96% 29.84 in 10.0 mi NW 5.8 mph - N/A   Partly Cloudy
7:53 AM 55.0 °F 50.0 °F 83% 29.83 in 10.0 mi NW 9.2 mph - N/A   Clear
8:53 AM 57.9 °F 51.1 °F 78% 29.84 in 10.0 mi NW 8.1 mph - N/A   Clear
9:53 AM 60.8 °F 50.0 °F 68% 29.84 in 10.0 mi NNW 9.2 mph - N/A   Clear
10:53 AM 60.1 °F 52.0 °F 75% 29.84 in 10.0 mi Calm Calm - N/A   Mostly Cloudy
11:28 AM 63.0 °F 50.0 °F 63% 29.84 in 10.0 mi WNW 6.9 mph - N/A   Scattered Clouds
11:53 AM 64.0 °F 50.0 °F 60% 29.82 in 10.0 mi West 8.1 mph - N/A   Clear
12:53 PM 64.9 °F 50.0 °F 58% 29.82 in 10.0 mi West 10.4 mph - N/A   Clear
1:53 PM 64.9 °F 50.0 °F 58% 29.81 in 10.0 mi WSW 6.9 mph - N/A   Partly Cloudy
2:53 PM 66.9 °F 50.0 °F 54% 29.81 in 10.0 mi West 6.9 mph - N/A   Scattered Clouds
3:53 PM 66.0 °F 50.0 °F 56% 29.81 in 10.0 mi WSW 8.1 mph - N/A   Clear
4:53 PM 64.0 °F 48.9 °F 58% 29.82 in 10.0 mi SSW 5.8 mph - N/A   Mostly Cloudy
5:53 PM 64.9 °F 50.0 °F 58% 29.82 in 10.0 mi West 3.5 mph - N/A   Mostly Cloudy
6:53 PM 64.9 °F 48.9 °F 56% 29.82 in 10.0 mi Calm Calm - N/A   Overcast
7:53 PM 63.0 °F 50.0 °F 63% 29.83 in 10.0 mi Calm Calm - N/A   Overcast
8:53 PM 61.0 °F 51.1 °F 70% 29.83 in 10.0 mi Calm Calm - N/A   Partly Cloudy
9:53 PM 60.1 °F 51.1 °F 72% 29.84 in 10.0 mi South 3.5 mph - N/A   Partly Cloudy
10:53 PM 60.1 °F 50.0 °F 69% 29.83 in 10.0 mi Calm Calm - N/A   Clear
11:53 PM 57.9 °F 51.1 °F 78% 29.83 in 10.0 mi SE 3.5 mph - N/A   Scattered Clouds